SUD012 VILH-VQPR

Flight info

Callsign SUD012
Flight time 1h 56m
Altitude 35100
Route TUNPU DCT KTM/N0451F370 B345 TUMLI G348 SUBSU SUBSU1
Aircraft A320/M-SDFGHILORVWY/S

Departure

Time 2026-04-22 18:48
Airport Leh Kushok Bakula Rimpochee Airport (VILH)

Arrival

Time 2026-04-22 20:44
Airport Paro International Airport (VQPR)
Time Latitude Longitude Altitude Speed Heading
2026-04-22 18:36 34.13678 77.54220 10689 ft 4 kts 59°
2026-04-22 18:36 34.13670 77.54202 10688 ft 1 kts 66°
2026-04-22 18:36 34.13669 77.54200 10688 ft 2 kts 66°
2026-04-22 18:39 34.13670 77.54203 10688 ft 2 kts 67°
2026-04-22 18:39 34.13679 77.54229 10690 ft 5 kts 66°
2026-04-22 18:39 34.13697 77.54278 10695 ft 8 kts 65°
2026-04-22 18:39 34.13710 77.54346 10701 ft 10 kts 112°
2026-04-22 18:40 34.13662 77.54408 10704 ft 0 kts 124°
2026-04-22 18:40 34.13663 77.54410 10705 ft 0 kts 107°
2026-04-22 18:40 34.13666 77.54423 10706 ft 3 kts 71°
2026-04-22 18:40 34.13688 77.54472 10711 ft 12 kts 65°
2026-04-22 18:41 34.13734 77.54596 10725 ft 20 kts 63°
2026-04-22 18:41 34.13798 77.54773 10742 ft 23 kts 65°
2026-04-22 18:41 34.13793 77.54894 10751 ft 21 kts 175°
2026-04-22 18:41 34.13714 77.54906 10748 ft 7 kts 200°
2026-04-22 18:42 34.13703 77.54896 10747 ft 1 kts 207°
2026-04-22 18:42 34.13689 77.54897 10746 ft 3 kts 180°
2026-04-22 18:42 34.13684 77.54898 10746 ft 1 kts 167°
2026-04-22 18:42 34.13682 77.54903 10746 ft 0 kts 129°
2026-04-22 18:43 34.13683 77.54908 10747 ft 0 kts 93°
2026-04-22 18:43 34.13688 77.54927 10749 ft 5 kts 70°
2026-04-22 18:43 34.13708 77.54997 10756 ft 13 kts 71°
2026-04-22 18:43 34.13744 77.55137 10770 ft 21 kts 78°
2026-04-22 18:44 34.13802 77.55325 10790 ft 25 kts 72°
2026-04-22 18:44 34.13873 77.55519 10805 ft 23 kts 66°
2026-04-22 18:44 34.13918 77.55660 10819 ft 13 kts 71°
2026-04-22 18:44 34.13936 77.55722 10825 ft 3 kts 71°
2026-04-22 18:45 34.13936 77.55725 10825 ft 0 kts 71°
2026-04-22 18:46 34.13937 77.55725 10825 ft 1 kts 71°
2026-04-22 18:46 34.13948 77.55764 10828 ft 10 kts 71°
2026-04-22 18:46 34.13983 77.55872 10838 ft 15 kts 78°
2026-04-22 18:46 34.13959 77.55869 10834 ft 4 kts 263°
2026-04-22 18:47 34.13914 77.55709 10822 ft 48 kts 250°
2026-04-22 18:47 34.13721 77.55039 10761 ft 118 kts 250°
2026-04-22 18:47 34.13381 77.53879 10649 ft 172 kts 253°
2026-04-22 18:47 34.12999 77.52412 11026 ft 187 kts 260°
2026-04-22 18:48 34.12849 77.50804 11572 ft 201 kts 274°
2026-04-22 18:48 34.12985 77.49676 11890 ft 210 kts 286°
2026-04-22 18:48 34.13452 77.47994 12561 ft 215 kts 288°
2026-04-22 18:48 34.13887 77.46172 12824 ft 235 kts 286°
2026-04-22 18:49 34.14322 77.44194 12961 ft 252 kts 286°
2026-04-22 18:49 34.15027 77.42192 13090 ft 269 kts 303°
2026-04-22 18:49 34.16182 77.40325 13230 ft 286 kts 309°
2026-04-22 18:49 34.17480 77.38411 13352 ft 304 kts 309°
2026-04-22 18:50 34.18689 77.36219 13484 ft 323 kts 299°
2026-04-22 18:50 34.19803 77.33772 13612 ft 342 kts 302°
2026-04-22 18:50 34.21443 77.31627 13746 ft 359 kts 324°
2026-04-22 18:50 34.23637 77.30071 14011 ft 371 kts 329°
2026-04-22 18:51 34.25646 77.28088 14444 ft 377 kts 309°
2026-04-22 18:51 34.26973 77.25360 14950 ft 379 kts 289°
2026-04-22 18:51 34.27445 77.22235 15494 ft 381 kts 269°
2026-04-22 18:51 34.27000 77.19081 16046 ft 382 kts 249°
2026-04-22 18:52 34.25694 77.16286 16576 ft 386 kts 230°
2026-04-22 18:52 34.23668 77.14175 17115 ft 388 kts 210°
2026-04-22 18:52 34.21153 77.12990 17623 ft 392 kts 191°
2026-04-22 18:52 34.18435 77.12888 18173 ft 395 kts 172°
2026-04-22 18:53 34.15803 77.13879 18661 ft 400 kts 153°
2026-04-22 18:53 34.13568 77.15877 19162 ft 405 kts 134°
2026-04-22 18:53 34.11889 77.18604 19628 ft 410 kts 123°
2026-04-22 18:53 34.10380 77.21566 20094 ft 414 kts 122°
2026-04-22 18:54 34.08877 77.24542 20507 ft 419 kts 122°
2026-04-22 18:54 34.07382 77.27520 20889 ft 425 kts 123°
2026-04-22 18:54 34.05817 77.30633 21381 ft 427 kts 122°
2026-04-22 18:54 34.04269 77.33702 21850 ft 430 kts 123°
2026-04-22 18:55 34.02709 77.36786 22284 ft 433 kts 123°
2026-04-22 18:55 34.01127 77.39900 22655 ft 436 kts 123°
2026-04-22 18:55 33.99535 77.43024 23100 ft 439 kts 123°
2026-04-22 18:55 33.97930 77.46168 23492 ft 442 kts 123°
2026-04-22 18:56 33.96314 77.49335 23870 ft 445 kts 123°
2026-04-22 18:56 33.94685 77.52526 24194 ft 448 kts 123°
2026-04-22 18:56 33.93076 77.55689 24516 ft 450 kts 123°
2026-04-22 18:56 33.91338 77.58818 24829 ft 450 kts 130°
2026-04-22 18:57 33.89299 77.61689 25160 ft 452 kts 133°
2026-04-22 18:57 33.87228 77.64545 25493 ft 454 kts 133°
2026-04-22 18:57 33.85146 77.67413 25797 ft 456 kts 133°
2026-04-22 18:57 33.83060 77.70283 26136 ft 457 kts 133°
2026-04-22 18:58 33.80963 77.73170 26448 ft 459 kts 133°
2026-04-22 18:58 33.78861 77.76068 26772 ft 460 kts 133°
2026-04-22 18:58 33.76752 77.78974 27090 ft 462 kts 133°
2026-04-22 18:58 33.74636 77.81882 27369 ft 463 kts 133°
2026-04-22 18:59 33.72513 77.84797 27663 ft 464 kts 133°
2026-04-22 18:59 33.70380 77.87723 27949 ft 466 kts 133°
2026-04-22 18:59 33.68244 77.90649 28216 ft 467 kts 133°
2026-04-22 18:59 33.66099 77.93585 28486 ft 469 kts 133°
2026-04-22 19:00 33.63946 77.96529 28748 ft 470 kts 133°
2026-04-22 19:00 33.61794 77.99473 29008 ft 471 kts 133°
2026-04-22 19:00 33.59632 78.02434 29283 ft 471 kts 132°
2026-04-22 19:00 33.57467 78.05398 29511 ft 472 kts 132°
2026-04-22 19:01 33.55296 78.08362 29738 ft 473 kts 133°
2026-04-22 19:01 33.53126 78.11324 30041 ft 472 kts 133°
2026-04-22 19:01 33.50964 78.14275 30360 ft 471 kts 132°
2026-04-22 19:01 33.48802 78.17225 30648 ft 470 kts 132°
2026-04-22 19:02 33.46649 78.20158 30925 ft 469 kts 132°
2026-04-22 19:02 33.44494 78.23087 31198 ft 468 kts 133°
2026-04-22 19:02 33.42343 78.26009 31449 ft 467 kts 132°
2026-04-22 19:02 33.40191 78.28925 31712 ft 467 kts 132°
2026-04-22 19:03 33.38041 78.31834 31983 ft 466 kts 133°
2026-04-22 19:03 33.35892 78.34739 32261 ft 465 kts 133°
2026-04-22 19:03 33.33749 78.37638 32508 ft 465 kts 132°
2026-04-22 19:03 33.31639 78.40489 32746 ft 464 kts 132°
2026-04-22 19:04 33.29475 78.43412 33011 ft 464 kts 132°
2026-04-22 19:04 33.27338 78.46299 33268 ft 463 kts 133°
2026-04-22 19:04 33.25206 78.49180 33521 ft 462 kts 133°
2026-04-22 19:04 33.23078 78.52052 33775 ft 462 kts 132°
2026-04-22 19:05 33.20948 78.54923 34022 ft 461 kts 132°
2026-04-22 19:05 33.18847 78.57751 34247 ft 461 kts 133°
2026-04-22 19:05 33.16720 78.60611 34472 ft 460 kts 132°
2026-04-22 19:05 33.14592 78.63468 34671 ft 460 kts 132°
2026-04-22 19:06 33.12438 78.66360 34874 ft 460 kts 132°
2026-04-22 19:06 33.10341 78.69175 35032 ft 460 kts 132°
2026-04-22 19:06 33.08210 78.72032 35181 ft 462 kts 132°
2026-04-22 19:07 33.03936 78.77751 35538 ft 462 kts 132°
2026-04-22 19:07 33.01801 78.80609 35726 ft 462 kts 132°
2026-04-22 19:07 32.99666 78.83468 35898 ft 462 kts 132°
2026-04-22 19:07 32.97530 78.86325 36034 ft 462 kts 133°
2026-04-22 19:08 32.95394 78.89175 36196 ft 462 kts 133°
2026-04-22 19:08 32.93223 78.92069 36357 ft 462 kts 133°
2026-04-22 19:08 32.91111 78.94880 36509 ft 462 kts 133°
2026-04-22 19:08 32.88968 78.97728 36656 ft 462 kts 133°
2026-04-22 19:09 32.86822 79.00577 36782 ft 462 kts 133°
2026-04-22 19:09 32.84684 79.03420 36933 ft 462 kts 133°
2026-04-22 19:09 32.82539 79.06271 37083 ft 462 kts 133°
2026-04-22 19:09 32.80393 79.09126 37217 ft 463 kts 132°
2026-04-22 19:10 32.78254 79.11970 37351 ft 463 kts 133°
2026-04-22 19:10 32.76101 79.14826 37471 ft 463 kts 133°
2026-04-22 19:10 32.73953 79.17666 37603 ft 463 kts 133°
2026-04-22 19:10 32.71799 79.20509 37737 ft 463 kts 133°
2026-04-22 19:11 32.69645 79.23352 37871 ft 463 kts 133°
2026-04-22 19:11 32.67489 79.26196 38024 ft 463 kts 133°
2026-04-22 19:11 32.65338 79.29036 38157 ft 462 kts 133°
2026-04-22 19:11 32.63189 79.31871 38293 ft 462 kts 133°
2026-04-22 19:12 32.61047 79.34700 38433 ft 461 kts 133°
2026-04-22 19:12 32.58906 79.37523 38584 ft 460 kts 133°
2026-04-22 19:12 32.56766 79.40343 38727 ft 460 kts 133°
2026-04-22 19:12 32.54624 79.43160 38844 ft 460 kts 133°
2026-04-22 19:13 32.52482 79.45972 38964 ft 459 kts 133°
2026-04-22 19:13 32.50344 79.48772 39097 ft 458 kts 133°
2026-04-22 19:13 32.48206 79.51571 39202 ft 458 kts 133°
2026-04-22 19:14 32.43919 79.57187 39217 ft 462 kts 133°
2026-04-22 19:14 32.39585 79.62861 39210 ft 466 kts 133°
2026-04-22 19:15 32.35968 79.67591 39208 ft 467 kts 133°
2026-04-22 19:15 32.30872 79.74248 39206 ft 467 kts 133°
2026-04-22 19:16 32.26540 79.79894 39213 ft 467 kts 133°
2026-04-22 19:16 32.22166 79.85575 39220 ft 467 kts 133°
2026-04-22 19:17 32.17785 79.91255 39221 ft 468 kts 133°
2026-04-22 19:17 32.13405 79.96938 39223 ft 469 kts 133°
2026-04-22 19:18 32.09008 80.02628 39243 ft 469 kts 133°
2026-04-22 19:18 32.04607 80.08307 39246 ft 470 kts 133°
2026-04-22 19:19 32.00209 80.13993 39253 ft 470 kts 133°
2026-04-22 19:19 31.95805 80.19673 39254 ft 470 kts 133°
2026-04-22 19:20 31.91391 80.25358 39254 ft 470 kts 133°
2026-04-22 19:20 31.86974 80.31021 39254 ft 470 kts 133°
2026-04-22 19:21 31.82555 80.36682 39257 ft 470 kts 133°
2026-04-22 19:21 31.78132 80.42331 39257 ft 470 kts 133°
2026-04-22 19:22 31.73702 80.47989 39252 ft 470 kts 133°
2026-04-22 19:22 31.69282 80.53642 39251 ft 470 kts 133°
2026-04-22 19:23 31.64855 80.59292 39255 ft 470 kts 133°
2026-04-22 19:23 31.60420 80.64932 39255 ft 470 kts 133°
2026-04-22 19:24 31.55975 80.70572 39259 ft 470 kts 133°
2026-04-22 19:24 31.51540 80.76203 39254 ft 470 kts 133°
2026-04-22 19:25 31.47101 80.81827 39256 ft 470 kts 133°
2026-04-22 19:25 31.42662 80.87452 39247 ft 470 kts 133°
2026-04-22 19:26 31.38211 80.93071 39275 ft 470 kts 134°
2026-04-22 19:26 31.33768 80.98663 39275 ft 470 kts 134°
2026-04-22 19:27 31.29323 81.04266 39268 ft 469 kts 134°
2026-04-22 19:27 31.24886 81.09849 39277 ft 469 kts 134°
2026-04-22 19:28 31.20445 81.15422 39257 ft 468 kts 133°
2026-04-22 19:28 31.16007 81.20991 39268 ft 469 kts 134°
2026-04-22 19:29 31.11585 81.26525 39268 ft 469 kts 134°
2026-04-22 19:29 31.07133 81.32089 39263 ft 469 kts 134°
2026-04-22 19:30 31.04153 81.35807 39270 ft 469 kts 134°
2026-04-22 19:30 30.98222 81.43194 39265 ft 469 kts 134°
2026-04-22 19:31 30.93772 81.48740 39267 ft 468 kts 134°
2026-04-22 19:31 30.89320 81.54279 39268 ft 469 kts 134°
2026-04-22 19:32 30.84863 81.59811 39268 ft 469 kts 134°
2026-04-22 19:32 30.80399 81.65343 39266 ft 469 kts 134°
2026-04-22 19:33 30.75936 81.70867 39284 ft 468 kts 134°
2026-04-22 19:33 30.71472 81.76374 39281 ft 468 kts 134°
2026-04-22 19:34 30.67009 81.81883 39276 ft 468 kts 134°
2026-04-22 19:34 30.62567 81.87361 39277 ft 469 kts 134°
2026-04-22 19:35 30.58816 81.91973 39279 ft 469 kts 134°
2026-04-22 19:35 30.54333 81.97480 39281 ft 469 kts 134°
2026-04-22 19:36 30.49852 82.02981 39276 ft 469 kts 134°
2026-04-22 19:36 30.45365 82.08480 39272 ft 470 kts 134°
2026-04-22 19:37 30.40867 82.13975 39261 ft 470 kts 134°
2026-04-22 19:37 30.36367 82.19473 39264 ft 471 kts 134°
2026-04-22 19:38 30.31889 82.24943 39265 ft 471 kts 134°
2026-04-22 19:38 30.27381 82.30436 39267 ft 471 kts 134°
2026-04-22 19:39 30.22863 82.35930 39268 ft 471 kts 134°
2026-04-22 19:39 30.18342 82.41420 39278 ft 471 kts 134°
2026-04-22 19:40 30.13820 82.46908 39265 ft 472 kts 135°
2026-04-22 19:40 30.09292 82.52394 39267 ft 472 kts 135°
2026-04-22 19:41 30.04752 82.57877 39265 ft 473 kts 135°
2026-04-22 19:41 30.00205 82.63360 39265 ft 473 kts 135°
2026-04-22 19:42 29.95658 82.68846 39260 ft 473 kts 135°
2026-04-22 19:42 29.91109 82.74333 39252 ft 473 kts 135°
2026-04-22 19:43 29.84275 82.82558 39253 ft 475 kts 135°
2026-04-22 19:43 29.79696 82.88041 39245 ft 475 kts 135°
2026-04-22 19:44 29.75112 82.93530 39244 ft 476 kts 135°
2026-04-22 19:44 29.70535 82.99011 39237 ft 475 kts 135°
2026-04-22 19:45 29.65951 83.04498 39241 ft 476 kts 135°
2026-04-22 19:45 29.61359 83.09980 39232 ft 476 kts 135°
2026-04-22 19:46 29.56747 83.15473 39229 ft 478 kts 135°
2026-04-22 19:46 29.52132 83.20970 39252 ft 479 kts 135°
2026-04-22 19:47 29.47506 83.26472 39255 ft 479 kts 135°
2026-04-22 19:47 29.42875 83.31968 39267 ft 479 kts 135°
2026-04-22 19:48 29.38240 83.37450 39260 ft 479 kts 135°
2026-04-22 19:48 29.33592 83.42936 39253 ft 480 kts 136°
2026-04-22 19:49 29.28943 83.48433 39263 ft 480 kts 136°
2026-04-22 19:49 29.24296 83.53927 39271 ft 480 kts 136°
2026-04-22 19:50 29.19646 83.59409 39277 ft 480 kts 136°
2026-04-22 19:50 29.14993 83.64888 39263 ft 480 kts 136°
2026-04-22 19:51 29.10337 83.70359 39261 ft 479 kts 136°
2026-04-22 19:51 29.05677 83.75821 39248 ft 480 kts 136°
2026-04-22 19:52 29.01008 83.81285 39246 ft 480 kts 136°
2026-04-22 19:52 28.96352 83.86747 39234 ft 480 kts 136°
2026-04-22 19:53 28.91684 83.92210 39244 ft 481 kts 136°
2026-04-22 19:53 28.87034 83.97639 39227 ft 482 kts 136°
2026-04-22 19:54 28.82309 84.03136 39204 ft 482 kts 137°
2026-04-22 19:54 28.77646 84.08566 39216 ft 483 kts 137°
2026-04-22 19:55 28.72947 84.14040 39189 ft 483 kts 137°
2026-04-22 19:55 28.68233 84.19511 39192 ft 484 kts 137°
2026-04-22 19:56 28.63505 84.24982 39178 ft 485 kts 137°
2026-04-22 19:56 28.58779 84.30456 39193 ft 485 kts 137°
2026-04-22 19:57 28.54038 84.35934 39100 ft 485 kts 137°
2026-04-22 19:57 28.49303 84.41405 39116 ft 486 kts 138°
2026-04-22 19:58 28.44566 84.46867 39117 ft 486 kts 138°
2026-04-22 19:58 28.39812 84.52337 39080 ft 487 kts 138°
2026-04-22 20:00 28.23130 84.71489 39081 ft 487 kts 138°
2026-04-22 20:01 28.18358 84.76948 39034 ft 487 kts 138°
2026-04-22 20:01 28.13584 84.82403 39061 ft 488 kts 139°
2026-04-22 20:02 28.08802 84.87857 39076 ft 487 kts 138°
2026-04-22 20:02 28.04023 84.93305 39064 ft 487 kts 139°
2026-04-22 20:03 27.99247 84.98741 39102 ft 487 kts 139°
2026-04-22 20:03 27.94460 85.04183 39043 ft 488 kts 139°
2026-04-22 20:04 27.89666 85.09626 39050 ft 489 kts 139°
2026-04-22 20:04 27.84892 85.15039 39051 ft 489 kts 139°
2026-04-22 20:05 27.80084 85.20485 39055 ft 490 kts 139°
2026-04-22 20:05 27.75268 85.25929 39034 ft 490 kts 139°
2026-04-22 20:06 27.70518 85.31461 39068 ft 492 kts 132°
2026-04-22 20:06 27.67038 85.38156 39050 ft 500 kts 112°
2026-04-22 20:07 27.65297 85.45774 39056 ft 504 kts 103°
2026-04-22 20:07 27.63838 85.53521 39034 ft 506 kts 103°
2026-04-22 20:08 27.62351 85.61282 39051 ft 507 kts 103°
2026-04-22 20:08 27.60860 85.69054 39040 ft 507 kts 103°
2026-04-22 20:09 27.59368 85.76834 39052 ft 508 kts 104°
2026-04-22 20:09 27.57867 85.84624 39060 ft 509 kts 104°
2026-04-22 20:10 27.56364 85.92397 39074 ft 510 kts 104°
2026-04-22 20:10 27.54857 86.00206 39076 ft 510 kts 104°
2026-04-22 20:11 27.53337 86.08030 39046 ft 511 kts 104°
2026-04-22 20:11 27.51804 86.15859 39050 ft 511 kts 104°
2026-04-22 20:12 27.50276 86.23668 39058 ft 510 kts 104°
2026-04-22 20:12 27.49012 86.30168 39061 ft 510 kts 103°
2026-04-22 20:13 27.47276 86.39250 39077 ft 510 kts 103°
2026-04-22 20:13 27.45778 86.47068 39071 ft 510 kts 104°
2026-04-22 20:14 27.44277 86.54869 39088 ft 509 kts 104°
2026-04-22 20:14 27.42769 86.62673 39013 ft 511 kts 104°
2026-04-22 20:15 27.41244 86.70511 39032 ft 513 kts 104°
2026-04-22 20:15 27.39720 86.78351 39033 ft 518 kts 104°
2026-04-22 20:16 27.38170 86.86326 39018 ft 519 kts 105°
2026-04-22 20:16 27.36623 86.94258 39018 ft 520 kts 105°
2026-04-22 20:17 27.35062 87.02216 39017 ft 522 kts 104°
2026-04-22 20:17 27.33493 87.10205 39008 ft 524 kts 104°
2026-04-22 20:18 27.31710 87.18154 38986 ft 521 kts 114°
2026-04-22 20:18 27.28478 87.25276 38981 ft 512 kts 127°
2026-04-22 20:19 27.24721 87.32083 38973 ft 513 kts 127°
2026-04-22 20:19 27.20963 87.38901 38976 ft 514 kts 127°
2026-04-22 20:20 27.17199 87.45721 38939 ft 514 kts 127°
2026-04-22 20:20 27.13421 87.52552 38897 ft 516 kts 128°
2026-04-22 20:21 27.10242 87.58285 38900 ft 516 kts 129°
2026-04-22 20:21 27.06432 87.65144 38888 ft 520 kts 128°
2026-04-22 20:22 27.02590 87.72053 38903 ft 523 kts 128°
2026-04-22 20:22 26.98729 87.78996 38900 ft 525 kts 128°
2026-04-22 20:23 26.94889 87.85900 38873 ft 526 kts 129°
2026-04-22 20:23 26.91005 87.92860 38875 ft 527 kts 128°
2026-04-22 20:24 26.87116 87.99809 38891 ft 527 kts 129°
2026-04-22 20:24 26.83219 88.06754 38652 ft 526 kts 130°
2026-04-22 20:24 26.81266 88.10231 37781 ft 530 kts 129°
2026-04-22 20:25 26.79308 88.13721 37134 ft 528 kts 128°
2026-04-22 20:25 26.77354 88.17204 36272 ft 530 kts 127°
2026-04-22 20:25 26.75394 88.20699 35443 ft 531 kts 126°
2026-04-22 20:25 26.73715 88.24376 34697 ft 532 kts 113°
2026-04-22 20:26 26.72673 88.28341 33982 ft 530 kts 101°
2026-04-22 20:26 26.72308 88.32421 33143 ft 525 kts 89°
2026-04-22 20:26 26.72520 88.35837 32413 ft 519 kts 79°
2026-04-22 20:26 26.73343 88.39731 31554 ft 511 kts 69°
2026-04-22 20:27 26.74729 88.43327 30716 ft 501 kts 58°
2026-04-22 20:27 26.76507 88.46642 29628 ft 489 kts 56°
2026-04-22 20:27 26.78270 88.49856 28087 ft 481 kts 56°
2026-04-22 20:27 26.80004 88.53015 27094 ft 467 kts 56°
2026-04-22 20:28 26.81645 88.56019 26766 ft 439 kts 56°
2026-04-22 20:28 26.83209 88.58884 26156 ft 423 kts 56°
2026-04-22 20:28 26.84715 88.61641 25599 ft 410 kts 56°
2026-04-22 20:28 26.86232 88.64407 25062 ft 424 kts 56°
2026-04-22 20:29 26.87785 88.67233 24565 ft 426 kts 56°
2026-04-22 20:29 26.89328 88.70057 24050 ft 425 kts 56°
2026-04-22 20:29 26.90860 88.72870 23529 ft 421 kts 56°
2026-04-22 20:29 26.92372 88.75655 22950 ft 415 kts 56°
2026-04-22 20:30 26.93864 88.78408 22356 ft 411 kts 56°
2026-04-22 20:30 26.95340 88.81130 21782 ft 408 kts 56°
2026-04-22 20:30 26.96812 88.83840 21145 ft 405 kts 56°
2026-04-22 20:30 26.98295 88.86568 20121 ft 415 kts 57°
2026-04-22 20:31 26.99766 88.89363 19436 ft 415 kts 58°
2026-04-22 20:31 27.01178 88.92161 18723 ft 408 kts 59°
2026-04-22 20:31 27.02544 88.94931 17692 ft 403 kts 60°
2026-04-22 20:31 27.03876 88.97662 16621 ft 400 kts 60°
2026-04-22 20:32 27.05205 89.00382 15983 ft 388 kts 60°
2026-04-22 20:32 27.06465 89.02947 15866 ft 362 kts 59°
2026-04-22 20:32 27.07646 89.05336 15785 ft 338 kts 59°
2026-04-22 20:32 27.08755 89.07566 15710 ft 317 kts 59°
2026-04-22 20:33 27.09802 89.09661 15651 ft 297 kts 59°
2026-04-22 20:33 27.10779 89.11613 15559 ft 280 kts 59°
2026-04-22 20:33 27.11719 89.13493 15487 ft 274 kts 58°
2026-04-22 20:33 27.12649 89.15354 15364 ft 272 kts 58°
2026-04-22 20:34 27.13566 89.17190 15261 ft 265 kts 59°
2026-04-22 20:34 27.14398 89.18971 15129 ft 259 kts 62°
2026-04-22 20:34 27.15147 89.20803 14954 ft 257 kts 64°
2026-04-22 20:34 27.15866 89.22661 14791 ft 256 kts 65°
2026-04-22 20:35 27.16555 89.24473 14646 ft 253 kts 65°
2026-04-22 20:35 27.17231 89.26249 14495 ft 242 kts 65°
2026-04-22 20:35 27.17885 89.27951 14321 ft 233 kts 65°
2026-04-22 20:35 27.18512 89.29576 14166 ft 221 kts 64°
2026-04-22 20:36 27.19107 89.31117 14035 ft 210 kts 64°
2026-04-22 20:36 27.19675 89.32585 13901 ft 200 kts 64°
2026-04-22 20:36 27.20215 89.33978 13772 ft 188 kts 65°
2026-04-22 20:36 27.20727 89.35297 13667 ft 182 kts 64°
2026-04-22 20:37 27.21231 89.36589 13519 ft 179 kts 64°
2026-04-22 20:37 27.21727 89.37860 13421 ft 177 kts 64°
2026-04-22 20:37 27.22219 89.39127 13315 ft 177 kts 64°
2026-04-22 20:37 27.22712 89.40390 13199 ft 176 kts 64°
2026-04-22 20:38 27.23202 89.41648 13090 ft 176 kts 64°
2026-04-22 20:38 27.23691 89.42903 13001 ft 175 kts 64°
2026-04-22 20:38 27.24179 89.44157 12895 ft 175 kts 64°
2026-04-22 20:38 27.24666 89.45409 12777 ft 175 kts 65°
2026-04-22 20:39 27.25151 89.46658 12657 ft 174 kts 64°
2026-04-22 20:39 27.25635 89.47906 12554 ft 174 kts 65°
2026-04-22 20:39 27.26117 89.49150 12443 ft 174 kts 64°
2026-04-22 20:39 27.26598 89.50394 12327 ft 173 kts 64°
2026-04-22 20:40 27.27077 89.51635 12223 ft 173 kts 65°
2026-04-22 20:40 27.27557 89.52876 12107 ft 173 kts 64°
2026-04-22 20:40 27.28276 89.53923 11997 ft 170 kts 33°
2026-04-22 20:40 27.29354 89.54385 11898 ft 167 kts
2026-04-22 20:41 27.30495 89.54251 11797 ft 165 kts 343°
2026-04-22 20:41 27.31532 89.53708 11710 ft 165 kts 324°
2026-04-22 20:41 27.32346 89.52828 11619 ft 166 kts 306°
2026-04-22 20:41 27.32873 89.51662 11520 ft 166 kts 287°
2026-04-22 20:42 27.33029 89.50382 11424 ft 166 kts 268°
2026-04-22 20:42 27.32938 89.49087 11323 ft 166 kts 272°
2026-04-22 20:42 27.33110 89.47831 11167 ft 166 kts 288°
2026-04-22 20:42 27.33659 89.46651 10683 ft 173 kts 308°
2026-04-22 20:43 27.34618 89.45723 9847 ft 195 kts 329°
2026-04-22 20:43 27.35959 89.45187 8829 ft 208 kts 348°
2026-04-22 20:43 27.37261 89.44743 8307 ft 196 kts 330°
2026-04-22 20:43 27.38327 89.43786 7680 ft 193 kts 321°
2026-04-22 20:44 27.39466 89.43022 7319 ft 181 kts 329°
2026-04-22 20:44 27.40467 89.42395 7278 ft 145 kts 330°
2026-04-22 20:44 27.41088 89.41981 7287 ft 68 kts 329°
2026-04-22 20:44 27.41270 89.41870 7283 ft 0 kts 45°
2026-04-22 20:46 27.41267 89.41876 7281 ft 0 kts 113°
2026-04-22 20:46 27.41267 89.41878 7281 ft 2 kts 110°
2026-04-22 20:46 27.41266 89.41881 7281 ft 0 kts 111°
2026-04-22 20:49 27.40564 89.42143 7276 ft 0 kts 240°